[[{"header":{"parameterUnit":"m.s-1","parameterCategory":1,"la1":30.2991,"la2":30.254,"lo1":-89.0895,"lo2":-89.0444,"dy":0.0017,"dx":0.0017,"nx":28,"ny":28,"refTime":"2026-02-18T03:00:00:Z","depth":0,"parameterNumber":2,"parameterNumberName":"U-component_of_WINDS"},"data":[0,0,0,0,0,0,0,0,0,0,0,0,0,0,0,0,0,0,0,0,0,0,0,0,0,0,0,0,0,0,0,0,0,0,0,0,0,0,0,0,0,0,0,0,0,0,0,0,0,0,0,0,0,0,0,0,0,0,-4.3345,-4.3346,0,-4.3462,-4.3463,-4.3464,-4.3463,-4.3461,-4.346,-4.3458,-4.3576,-4.3581,-4.3585,0,0,0,0,0,0,0,0,0,0,0,0,0,-4.312,-4.3124,-4.3345,-4.3346,-4.3348,-4.3462,-4.3463,-4.3465,-4.3463,-4.3461,-4.346,-4.3458,-4.3575,-4.358,-4.3586,0,0,0,0,0,0,0,0,0,0,0,0,0,-4.3226,-4.3126,-4.3345,-4.3361,-4.3363,-4.3461,-4.3463,-4.3465,-4.3464,-4.3461,-4.3459,-4.3457,-4.3573,-4.358,-4.3586,-4.3675,0,0,-4.3607,-4.361,0,0,0,0,0,0,0,0,-4.322,-4.3234,-4.3357,-4.336,-4.3363,-4.3445,-4.3427,-4.3536,-4.3464,-4.3426,-4.3458,-4.3456,-4.3535,-4.3544,-4.3571,-4.3681,-4.3686,-4.3608,-4.3612,-4.3615,-4.3617,0,0,0,0,0,0,0,-4.3212,-4.3229,-4.3391,-4.3359,-4.3362,-4.3362,-4.3375,-4.3448,-4.3492,-4.3429,-4.3429,-4.3443,-4.3536,-4.3565,-4.3574,-4.3688,-4.3608,-4.3614,-4.3618,-4.3621,-4.3877,-4.388,0,0,0,0,0,0,-4.3202,-4.3223,-4.3387,-4.3394,-4.3284,-4.3368,-4.3382,-4.3421,-4.3491,-4.3499,-4.3445,-4.3442,-4.3554,-4.3566,-4.3578,-4.3687,-4.3615,-4.3622,-4.3625,-4.3874,-4.3878,-4.388,0,0,0,0,0,0,-4.3197,-4.3216,-4.3383,-4.3309,-4.333,-4.3375,-4.3419,-4.3425,-4.3454,-4.3503,-4.3511,-4.3466,-4.3553,-4.3569,-4.3652,-4.3691,-4.3625,-4.3631,-4.3871,-4.3875,-4.3879,-4.3904,0,0,0,0,0,0,-4.319,-4.3215,-4.3249,-4.331,-4.3334,-4.3454,-4.3421,-4.3429,-4.3466,-4.3464,-4.3525,-4.3533,-4.3552,-4.3641,-4.3658,-4.3699,-4.3636,-4.3868,-4.3873,-4.3878,-4.39,-4.3909,-4.3916,0,0,0,0,0,-4.3182,-4.3251,-4.325,-4.327,-4.3377,-4.3456,-4.347,-4.3491,-4.3469,-4.3504,-4.3536,-4.3531,-4.3685,-4.365,-4.3669,-4.3712,-4.3865,-4.3872,-4.3877,-4.3897,-4.3907,-4.3916,0,0,0,0,0,0,-4.3192,-4.3259,-4.3259,-4.3349,-4.3397,-4.3456,-4.35,-4.3501,-4.3556,-4.3552,-4.3575,-4.3589,-4.3672,-4.3701,-4.3661,-4.3803,-4.3772,-4.3782,-4.378,-4.3791,-4.3798,-4.3789,-4.3642,0,0,0,0,0,-4.3205,-4.3263,-4.3319,-4.3393,-4.3417,-4.3454,-4.3489,-4.3502,-4.3552,-4.3572,-4.361,-4.3659,-4.3718,-4.3756,-4.3814,-4.3906,-4.3919,-4.3945,-4.3953,-4.3959,-4.3967,-4.4018,-4.403,-4.39,-4.39,-4.39,0,0,-4.3231,-4.3275,-4.331,-4.3396,-4.3434,-4.3494,-4.3471,-4.3535,-4.358,-4.3582,-4.3662,-4.3692,-4.3748,-4.3836,-4.3877,-4.3863,-4.4007,-4.3967,-4.3972,-4.3976,-4.4026,-4.4038,-4.4049,-4.3904,-4.3904,-4.3903,0,0,-4.331,-4.3349,-4.3415,-4.3455,-4.3514,-4.3539,-4.3555,-4.3615,-4.3635,-4.3716,-4.3719,-4.3773,-4.3875,-4.3915,-4.3948,-4.4045,-4.4043,-4.4063,-4.4104,-4.4154,-4.4164,-4.4173,-4.4207,-4.4219,-4.4071,-4.4072,-4.4072,0,-4.3334,-4.3425,-4.3449,-4.3514,-4.3551,-4.3558,-4.3625,-4.3662,-4.3737,-4.3763,-4.3746,-4.3875,-4.3913,-4.4011,-4.4035,-4.4062,-4.4081,-4.4055,-4.4161,-4.417,-4.4179,-4.4211,-4.4224,-4.4074,-4.4073,-4.4073,-4.4073,0,-4.3453,-4.3516,-4.3563,-4.3635,-4.3679,-4.3744,-4.3778,-4.3819,-4.3829,-4.3856,-4.3939,-4.3986,-4.4053,-4.4078,-4.4087,-4.4177,-4.4167,-4.4156,-4.4125,-4.4193,-4.4224,-4.4236,-4.4076,-4.4076,-4.4075,-4.4075,0,0,-4.3537,-4.3625,-4.3641,-4.3675,-4.3742,-4.3791,-4.3858,-4.3925,-4.3959,-4.4012,-4.4068,-4.4155,-4.4146,-4.4184,-4.4199,-4.4242,-4.4316,-4.4226,-4.4228,-4.424,-4.4417,-4.4424,-4.4438,-4.4316,-4.4319,-4.4321,-4.4412,0,-4.3622,-4.374,-4.3765,-4.3867,-4.3926,-4.3934,-4.3992,-4.404,-4.4068,-4.4122,-4.4152,-4.4213,-4.4197,-4.422,-4.4264,-4.4297,-4.4351,-4.4292,-4.4368,-4.437,-4.4351,-4.4454,-4.4461,-4.4545,-4.4425,-4.4427,-4.4428,0,-4.3736,-4.3792,-4.39,-4.3961,-4.3986,-4.4038,-4.4102,-4.4154,-4.4209,-4.4226,-4.427,-4.428,-4.435,-4.4319,-4.4415,-4.4374,-4.4407,-4.4429,-4.4433,-4.4438,-4.4401,-4.4461,-4.4572,-4.4584,-4.4448,-4.4446,-4.4445,0,-4.3785,-4.3888,-4.3966,-4.3995,-4.4068,-4.4104,-4.4136,-4.4189,-4.4228,-4.4284,-4.431,-4.4373,-4.4407,-4.4456,-4.4484,-4.4458,-4.4578,-4.4549,-4.4594,-4.4593,-4.4616,-4.4614,-4.4732,-4.4641,-4.4641,-4.4641,-4.464,0,-4.3876,-4.3941,-4.399,-4.4037,-4.4112,-4.414,-4.4213,-4.4245,-4.4292,-4.4346,-4.4358,-4.4409,-4.4443,-4.4499,-4.4521,-4.4598,-4.4613,-4.4629,-4.4633,-4.4627,-4.4624,-4.4647,-4.4641,-4.4644,-4.4643,-4.4643,-4.4642,0,-4.3942,-4.3977,-4.4063,-4.4126,-4.4144,-4.4195,-4.4249,-4.4296,-4.4326,-4.4394,-4.4412,-4.4457,-4.4524,-4.4557,-4.464,-4.4655,-4.4741,-4.4743,-4.4722,-4.4723,-4.4766,-4.4761,-4.4901,-4.4921,-4.4818,-4.4819,-4.482,0,-4.3997,-4.4048,-4.4117,-4.4154,-4.4188,-4.4248,-4.4288,-4.4319,-4.436,-4.4428,-4.4467,-4.4534,-4.4589,-4.4695,-4.4735,-4.4799,-4.4802,-4.4847,-4.4811,-4.4803,-4.4801,-4.4796,-4.4801,-4.4852,-4.4853,-4.4854,-4.4854,0,-4.409,-4.4105,-4.4162,-4.4227,-4.4275,-4.4327,-4.4378,-4.4409,-4.4448,-4.4494,-4.4562,-4.4605,-4.4691,-4.4757,-4.4824,-4.4857,-4.4862,-4.4866,-4.4879,-4.4871,-4.4857,-4.4864,-4.4737,-4.4862,-4.4861,-4.486,-4.486,-4.486,-4.4151,-4.4197,-4.4253,-4.4317,-4.4359,-4.4407,-4.4455,-4.4491,-4.4549,-4.462,-4.4636,-4.4708,-4.4763,-4.4854,-4.4889,-4.4947,-4.4937,-4.4957,-4.4961,-4.4965,-4.4967,-4.485,-4.4959,-4.4959,-4.4959,-4.4959,-4.4959,0,-4.4243,-4.428,-4.4339,-4.4411,-4.4462,-4.4464,-4.4522,-4.4564,-4.4628,-4.4679,-4.4734,-4.4813,-4.4878,-4.4925,-4.4991,-4.5028,-4.5032,-4.5045,-4.5041,-4.5049,-4.4972,-4.4953,-4.504,-4.504,-4.504,-4.504,-4.504,-4.504,-4.4297,-4.4375,-4.4397,-4.4496,-4.4533,-4.4605,-4.4637,-4.4682,-4.4723,-4.4811,-4.4866,-4.4896,-4.4946,-4.5016,-4.5076,-4.5088,-4.5112,-4.5124,-4.5135,-4.5063,-4.5054,-4.5045,-4.5028,-4.5129,-4.5129,-4.5207,-4.5207,-4.5208]},{"header":{"parameterUnit":"m.s-1","parameterCategory":1,"la1":30.2991,"la2":30.254,"lo1":-89.0895,"lo2":-89.0444,"dy":0.0017,"dx":0.0017,"nx":28,"ny":28,"refTime":"2026-02-18T03:00:00:Z","depth":0,"parameterNumber":3,"parameterNumberName":"V-component_of_WINDS"},"data":[0,0,0,0,0,0,0,0,0,0,0,0,0,0,0,0,0,0,0,0,0,0,0,0,0,0,0,0,0,0,0,0,0,0,0,0,0,0,0,0,0,0,0,0,0,0,0,0,0,0,0,0,0,0,0,0,0,0,2.6469,2.6469,0,2.652,2.6521,2.6522,2.6586,2.6587,2.6589,2.6589,2.6638,2.6638,2.6638,0,0,0,0,0,0,0,0,0,0,0,0,0,2.6424,2.6425,2.6469,2.647,2.647,2.652,2.6521,2.6522,2.6586,2.6588,2.6589,2.659,2.6638,2.6638,2.6638,0,0,0,0,0,0,0,0,0,0,0,0,0,2.6456,2.6425,2.6469,2.6509,2.6513,2.652,2.6521,2.6522,2.6586,2.6588,2.6589,2.6591,2.6638,2.6638,2.6638,2.661,0,0,2.664,2.664,0,0,0,0,0,0,0,0,2.6454,2.6458,2.6502,2.6506,2.651,2.6549,2.6523,2.6551,2.6586,2.6558,2.659,2.6591,2.6607,2.661,2.6616,2.6612,2.6614,2.664,2.664,2.664,2.6641,0,0,0,0,0,0,0,2.6452,2.6456,2.6489,2.6503,2.6508,2.6523,2.6529,2.6529,2.6573,2.656,2.6565,2.6571,2.6609,2.6615,2.6617,2.6615,2.664,2.664,2.6641,2.6641,2.6593,2.6591,0,0,0,0,0,0,2.6444,2.6454,2.6488,2.6491,2.6486,2.6523,2.653,2.6535,2.6573,2.658,2.6569,2.6574,2.6614,2.6617,2.6619,2.659,2.664,2.6641,2.6641,2.6594,2.6592,2.6591,0,0,0,0,0,0,2.6443,2.6447,2.6485,2.6474,2.648,2.6522,2.6527,2.6535,2.6541,2.658,2.6587,2.6568,2.6615,2.6619,2.6613,2.6592,2.6641,2.6641,2.6596,2.6594,2.6591,2.6529,0,0,0,0,0,0,2.6441,2.6446,2.6436,2.6473,2.648,2.6478,2.6526,2.6535,2.6542,2.6548,2.658,2.6587,2.6616,2.6612,2.6613,2.6594,2.6642,2.6598,2.6595,2.6592,2.6533,2.6525,2.6518,0,0,0,0,0,2.644,2.6415,2.6435,2.6439,2.6469,2.6477,2.6481,2.6517,2.654,2.653,2.6556,2.6586,2.6594,2.661,2.6613,2.6593,2.6599,2.6596,2.6592,2.6537,2.6527,2.6518,0,0,0,0,0,0,2.6372,2.642,2.6443,2.643,2.6449,2.6488,2.6476,2.6505,2.6517,2.6521,2.6564,2.6571,2.656,2.6576,2.6593,2.6569,2.6602,2.6598,2.6558,2.6549,2.6542,2.6538,2.6642,0,0,0,0,0,2.6356,2.6359,2.6401,2.6385,2.6394,2.6433,2.6438,2.6465,2.6486,2.6494,2.6519,2.6537,2.6544,2.6548,2.6556,2.6536,2.6545,2.6524,2.6517,2.651,2.6506,2.6499,2.649,2.6579,2.6579,2.6579,0,0,2.6321,2.6348,2.6348,2.6372,2.639,2.6393,2.644,2.644,2.6442,2.6493,2.649,2.6509,2.6532,2.652,2.6515,2.6533,2.6484,2.6506,2.65,2.65,2.6494,2.6486,2.6478,2.6577,2.6577,2.6578,0,0,2.6261,2.6281,2.6271,2.6289,2.6317,2.6344,2.6341,2.6377,2.6392,2.639,2.6429,2.6432,2.6443,2.6458,2.6468,2.6416,2.6444,2.6417,2.6377,2.6369,2.6362,2.6356,2.6338,2.6331,2.6414,2.6414,2.6414,0,2.6214,2.6221,2.6262,2.6261,2.627,2.632,2.631,2.6325,2.6353,2.6358,2.6378,2.6395,2.6414,2.6406,2.6394,2.64,2.6398,2.6413,2.636,2.6354,2.6349,2.6333,2.6326,2.641,2.6411,2.6411,2.6411,0,2.6163,2.6167,2.6155,2.6184,2.6192,2.6186,2.6227,2.623,2.6257,2.6281,2.6279,2.6304,2.6319,2.632,2.6344,2.6316,2.6326,2.6352,2.6386,2.6337,2.6322,2.6316,2.6405,2.6407,2.6408,2.6409,0,0,2.6058,2.6112,2.6107,2.6122,2.6157,2.6161,2.6157,2.6175,2.6177,2.6196,2.6194,2.6204,2.6229,2.624,2.6267,2.626,2.6218,2.6287,2.6288,2.6273,2.619,2.617,2.6162,2.6238,2.6237,2.6236,2.6188,0,2.6004,2.6003,2.6041,2.6029,2.6034,2.6082,2.608,2.6101,2.6124,2.6131,2.6157,2.6163,2.6196,2.6203,2.6198,2.6224,2.6202,2.6228,2.6236,2.6236,2.6229,2.6154,2.6133,2.6086,2.6182,2.6182,2.6181,0,2.5941,2.5958,2.5947,2.5985,2.5988,2.5985,2.6005,2.6011,2.6037,2.6055,2.6068,2.61,2.6099,2.6132,2.6132,2.6149,2.6155,2.6169,2.6168,2.6169,2.6205,2.6154,2.6072,2.6065,2.6172,2.6173,2.6173,0,2.5867,2.5887,2.5884,2.5894,2.5938,2.5936,2.5953,2.5981,2.5989,2.6006,2.6012,2.6028,2.6037,2.6048,2.6084,2.6104,2.608,2.6115,2.6094,2.6093,2.6086,2.6086,2.6004,2.609,2.609,2.609,2.609,0,2.5802,2.5793,2.5851,2.5849,2.5841,2.5886,2.5876,2.5899,2.5923,2.5926,2.5968,2.5969,2.6016,2.6023,2.6051,2.6047,2.605,2.6064,2.6072,2.6061,2.6059,2.6064,2.6068,2.6088,2.6089,2.6089,2.6089,0,2.5718,2.5756,2.5756,2.5798,2.5809,2.5801,2.5838,2.5837,2.5865,2.5868,2.5871,2.5913,2.5924,2.5961,2.5979,2.5998,2.5985,2.6,2.5977,2.5982,2.5959,2.596,2.5877,2.5869,2.596,2.5959,2.5958,0,2.5674,2.5669,2.5712,2.5718,2.5735,2.5743,2.5753,2.5796,2.5804,2.5835,2.583,2.5845,2.5858,2.5873,2.5904,2.592,2.5935,2.5905,2.5937,2.5926,2.5934,2.5934,2.5934,2.5897,2.5896,2.5895,2.5894,0,2.5592,2.5612,2.5625,2.5645,2.5656,2.5674,2.5693,2.5695,2.5744,2.5751,2.5764,2.5774,2.5795,2.5809,2.583,2.5848,2.5879,2.5884,2.588,2.5868,2.5855,2.5862,2.5958,2.5885,2.5886,2.5887,2.5887,2.5888,2.5527,2.5526,2.5556,2.557,2.559,2.5608,2.561,2.5639,2.565,2.5672,2.5697,2.5706,2.5733,2.5765,2.5781,2.5788,2.5805,2.5799,2.5798,2.5795,2.579,2.5855,2.5792,2.5793,2.5793,2.5793,2.5793,0,2.5448,2.5471,2.5483,2.5511,2.5522,2.5552,2.5576,2.5583,2.5591,2.5615,2.5628,2.5643,2.5657,2.5691,2.5708,2.5708,2.5723,2.5711,2.5711,2.5715,2.5774,2.5776,2.5699,2.5699,2.5699,2.5699,2.5699,2.5699,2.5409,2.5408,2.5432,2.5442,2.5465,2.5475,2.5487,2.5504,2.5523,2.5538,2.5551,2.5573,2.5601,2.5621,2.5635,2.5645,2.5649,2.5633,2.5647,2.5701,2.571,2.5719,2.5721,2.5633,2.5633,2.5587,2.5587,2.5586]}]]